Data supplied by UK-AIR on 15/3/2024
All Data GMT hour ending 
Status: R =Ratified P=Provisional,P*=As supplied
,,Sunderland Wessington Way,,,,,,,,,,,,,,,,,,,,,,,
Date,time,"Nitric oxide",status,unit,"Nitrogen dioxide",status,unit,"Nitrogen oxides as nitrogen dioxide",status,unit
 
01-01-2023,01:00,1.71751,R,ugm-3,11.95964,R,ugm-3,14.59312,R,ugm-3
01-01-2023,02:00,2.70508,R,ugm-3,15.00975,R,ugm-3,19.15749,R,ugm-3
01-01-2023,03:00,1.03051,R,ugm-3,6.56827,R,ugm-3,8.14836,R,ugm-3
01-01-2023,04:00,0.38644,R,ugm-3,2.34859,R,ugm-3,2.94113,R,ugm-3
01-01-2023,05:00,0.48305,R,ugm-3,1.09151,R,ugm-3,1.83218,R,ugm-3
01-01-2023,06:00,0.32203,R,ugm-3,0.61517,R,ugm-3,1.10895,R,ugm-3
01-01-2023,07:00,0.67627,R,ugm-3,1.66312,R,ugm-3,2.70005,R,ugm-3
01-01-2023,08:00,0.96610,R,ugm-3,2.76160,R,ugm-3,4.24293,R,ugm-3
01-01-2023,09:00,1.44915,R,ugm-3,4.52812,R,ugm-3,6.75012,R,ugm-3
01-01-2023,10:00,1.57796,R,ugm-3,3.07702,R,ugm-3,5.49653,R,ugm-3
01-01-2023,11:00,1.48135,R,ugm-3,6.35914,R,ugm-3,8.63051,R,ugm-3
01-01-2023,12:00,2.64067,R,ugm-3,5.11190,R,ugm-3,9.16088,R,ugm-3
01-01-2023,13:00,2.47966,R,ugm-3,5.69630,R,ugm-3,9.49839,R,ugm-3
01-01-2023,14:00,3.02712,R,ugm-3,7.74978,R,ugm-3,12.39129,R,ugm-3
01-01-2023,15:00,3.25254,R,ugm-3,7.54879,R,ugm-3,12.53594,R,ugm-3
01-01-2023,16:00,2.09322,R,ugm-3,6.09597,R,ugm-3,9.30552,R,ugm-3
01-01-2023,17:00,1.61017,R,ugm-3,5.19732,R,ugm-3,7.66621,R,ugm-3
01-01-2023,18:00,1.96440,R,ugm-3,5.85954,R,ugm-3,8.87159,R,ugm-3
01-01-2023,19:00,4.79830,R,ugm-3,16.02706,R,ugm-3,23.38435,R,ugm-3
01-01-2023,20:00,3.25254,R,ugm-3,17.09538,R,ugm-3,22.08254,R,ugm-3
01-01-2023,21:00,1.54576,R,ugm-3,17.78380,R,ugm-3,20.15393,R,ugm-3
01-01-2023,22:00,2.02881,R,ugm-3,29.28978,R,ugm-3,32.40058,R,ugm-3
01-01-2023,23:00,2.06101,R,ugm-3,33.53155,R,ugm-3,36.69173,R,ugm-3
01-01-2023,24:00,4.63728,R,ugm-3,22.15620,R,ugm-3,29.26660,R,ugm-3
02-01-2023,01:00,0.55829,R,ugm-3,17.80034,R,ugm-3,18.65638,R,ugm-3
02-01-2023,02:00,1.76077,R,ugm-3,12.86862,R,ugm-3,15.56843,R,ugm-3
02-01-2023,03:00,0.28988,R,ugm-3,9.73611,R,ugm-3,10.18059,R,ugm-3
02-01-2023,04:00,0.45093,R,ugm-3,6.40123,R,ugm-3,7.09264,R,ugm-3
02-01-2023,05:00,0.61197,R,ugm-3,4.22432,R,ugm-3,5.16267,R,ugm-3
02-01-2023,06:00,0.64418,R,ugm-3,3.11345,R,ugm-3,4.10119,R,ugm-3
02-01-2023,07:00,0.83744,R,ugm-3,4.45761,R,ugm-3,5.74166,R,ugm-3
02-01-2023,08:00,1.41720,R,ugm-3,8.05583,R,ugm-3,10.22884,R,ugm-3
02-01-2023,09:00,1.67488,R,ugm-3,8.77047,R,ugm-3,11.33857,R,ugm-3
02-01-2023,10:00,2.89882,R,ugm-3,10.80196,R,ugm-3,15.24676,R,ugm-3
02-01-2023,11:00,3.05987,R,ugm-3,9.49355,R,ugm-3,14.18528,R,ugm-3
02-01-2023,12:00,4.44486,R,ugm-3,10.12013,R,ugm-3,16.93549,R,ugm-3
02-01-2023,13:00,5.21788,R,ugm-3,12.84303,R,ugm-3,20.84368,R,ugm-3
02-01-2023,14:00,4.86358,R,ugm-3,12.37306,R,ugm-3,19.83044,R,ugm-3
02-01-2023,15:00,5.34672,R,ugm-3,14.28596,R,ugm-3,22.48415,R,ugm-3
02-01-2023,16:00,8.66426,R,ugm-3,29.84981,R,ugm-3,43.13483,R,ugm-3
02-01-2023,17:00,28.18301,R,ugm-3,61.34279,R,ugm-3,104.55613,R,ugm-3
02-01-2023,18:00,8.14892,R,ugm-3,45.25953,R,ugm-3,57.75435,R,ugm-3
02-01-2023,19:00,4.50928,R,ugm-3,31.92651,R,ugm-3,38.84065,R,ugm-3
02-01-2023,20:00,2.86662,R,ugm-3,17.94399,R,ugm-3,22.33940,R,ugm-3
02-01-2023,21:00,1.99697,R,ugm-3,10.83381,R,ugm-3,13.89579,R,ugm-3
02-01-2023,22:00,1.57825,R,ugm-3,9.40112,R,ugm-3,11.82107,R,ugm-3
02-01-2023,23:00,0.96628,R,ugm-3,9.32623,R,ugm-3,10.80783,R,ugm-3
02-01-2023,24:00,1.86813,R,ugm-3,11.51385,R,ugm-3,14.37828,R,ugm-3
03-01-2023,01:00,1.50336,R,ugm-3,10.69919,R,ugm-3,13.00432,R,ugm-3
03-01-2023,02:00,0.60135,R,ugm-3,14.46425,R,ugm-3,15.38630,R,ugm-3
03-01-2023,03:00,1.09531,R,ugm-3,20.09634,R,ugm-3,21.77579,R,ugm-3
03-01-2023,04:00,0.64430,R,ugm-3,14.31791,R,ugm-3,15.30582,R,ugm-3
03-01-2023,05:00,0.90202,R,ugm-3,10.68776,R,ugm-3,12.07084,R,ugm-3
03-01-2023,06:00,1.64296,R,ugm-3,14.04202,R,ugm-3,16.56119,R,ugm-3
03-01-2023,07:00,2.93156,R,ugm-3,15.10804,R,ugm-3,19.60304,R,ugm-3
03-01-2023,08:00,5.47654,R,ugm-3,22.02126,R,ugm-3,30.41851,R,ugm-3
03-01-2023,09:00,4.34902,R,ugm-3,13.94859,R,ugm-3,20.61699,R,ugm-3
03-01-2023,10:00,3.60808,R,ugm-3,12.57395,R,ugm-3,18.10626,R,ugm-3
03-01-2023,11:00,4.89667,R,ugm-3,15.18505,R,ugm-3,22.69318,R,ugm-3
03-01-2023,12:00,6.44299,R,ugm-3,18.99433,R,ugm-3,28.87345,R,ugm-3
03-01-2023,13:00,9.27791,R,ugm-3,19.71727,R,ugm-3,33.94320,R,ugm-3
03-01-2023,14:00,14.01351,R,ugm-3,28.48619,R,ugm-3,49.97327,R,ugm-3
03-01-2023,15:00,8.37589,R,ugm-3,27.47375,R,ugm-3,40.31660,R,ugm-3
03-01-2023,16:00,9.24570,R,ugm-3,21.60143,R,ugm-3,35.77797,R,ugm-3
03-01-2023,17:00,8.63361,R,ugm-3,20.89831,R,ugm-3,34.13633,R,ugm-3
03-01-2023,18:00,3.93023,R,ugm-3,13.43193,R,ugm-3,19.45819,R,ugm-3
03-01-2023,19:00,3.57586,R,ugm-3,12.96133,R,ugm-3,18.44424,R,ugm-3
03-01-2023,20:00,1.96511,R,ugm-3,10.36136,R,ugm-3,13.37449,R,ugm-3
03-01-2023,21:00,0.83759,R,ugm-3,8.56552,R,ugm-3,9.84981,R,ugm-3
03-01-2023,22:00,0.99866,R,ugm-3,6.38721,R,ugm-3,7.91847,R,ugm-3
03-01-2023,23:00,0.61208,R,ugm-3,5.24175,R,ugm-3,6.18027,R,ugm-3
03-01-2023,24:00,0.67651,R,ugm-3,2.14939,R,ugm-3,3.18670,R,ugm-3
04-01-2023,01:00,0.73034,R,ugm-3,0.87729,R,ugm-3,1.99712,R,ugm-3
04-01-2023,02:00,0.42961,R,ugm-3,0.69416,R,ugm-3,1.35289,R,ugm-3
04-01-2023,03:00,0.54775,R,ugm-3,0.85124,R,ugm-3,1.69111,R,ugm-3
04-01-2023,04:00,0.28999,R,ugm-3,1.19815,R,ugm-3,1.64279,R,ugm-3
04-01-2023,05:00,0.28999,R,ugm-3,1.19815,R,ugm-3,1.64279,R,ugm-3
04-01-2023,06:00,0.57998,R,ugm-3,1.23669,R,ugm-3,2.12597,R,ugm-3
04-01-2023,07:00,1.28883,R,ugm-3,2.56566,R,ugm-3,4.54184,R,ugm-3
04-01-2023,08:00,2.67433,R,ugm-3,4.49994,R,ugm-3,8.60051,R,ugm-3
04-01-2023,09:00,3.47984,R,ugm-3,8.43479,R,ugm-3,13.77048,R,ugm-3
04-01-2023,10:00,3.06097,R,ugm-3,7.57921,R,ugm-3,12.27264,R,ugm-3
04-01-2023,11:00,3.25430,R,ugm-3,6.65465,R,ugm-3,11.64451,R,ugm-3
04-01-2023,12:00,3.73761,R,ugm-3,5.18883,R,ugm-3,10.91975,R,ugm-3
04-01-2023,13:00,3.31874,R,ugm-3,5.15464,R,ugm-3,10.24330,R,ugm-3
04-01-2023,14:00,3.15764,R,ugm-3,6.17474,R,ugm-3,11.01638,R,ugm-3
04-01-2023,15:00,2.57766,R,ugm-3,5.46955,R,ugm-3,9.42190,R,ugm-3
04-01-2023,16:00,3.38318,R,ugm-3,8.14815,R,ugm-3,13.33562,R,ugm-3
04-01-2023,17:00,3.57651,R,ugm-3,9.54283,R,ugm-3,15.02673,R,ugm-3
04-01-2023,18:00,3.15764,R,ugm-3,10.81322,R,ugm-3,15.65486,R,ugm-3
04-01-2023,19:00,2.93209,R,ugm-3,8.69486,R,ugm-3,13.19067,R,ugm-3
04-01-2023,20:00,1.90103,R,ugm-3,7.57002,R,ugm-3,10.48489,R,ugm-3
04-01-2023,21:00,1.35327,R,ugm-3,6.81542,R,ugm-3,8.89041,R,ugm-3
04-01-2023,22:00,1.70770,R,ugm-3,6.75515,R,ugm-3,9.37359,R,ugm-3
04-01-2023,23:00,1.38549,R,ugm-3,4.73669,R,ugm-3,6.86108,R,ugm-3
04-01-2023,24:00,0.64442,R,ugm-3,3.02226,R,ugm-3,4.01035,R,ugm-3
05-01-2023,01:00,0.64453,R,ugm-3,3.39561,R,ugm-3,4.38388,R,ugm-3
05-01-2023,02:00,0.25781,R,ugm-3,2.76366,R,ugm-3,3.15897,R,ugm-3
05-01-2023,03:00,0.35449,R,ugm-3,2.69601,R,ugm-3,3.23956,R,ugm-3
05-01-2023,04:00,0.38672,R,ugm-3,1.48616,R,ugm-3,2.07912,R,ugm-3
05-01-2023,05:00,0.45117,R,ugm-3,2.35436,R,ugm-3,3.04615,R,ugm-3
05-01-2023,06:00,0.83789,R,ugm-3,5.91963,R,ugm-3,7.20438,R,ugm-3
05-01-2023,07:00,3.73828,R,ugm-3,19.26580,R,ugm-3,24.99776,R,ugm-3
05-01-2023,08:00,22.59083,R,ugm-3,46.05996,R,ugm-3,80.69875,R,ugm-3
05-01-2023,09:00,29.84182,R,ugm-3,57.18366,R,ugm-3,102.94047,R,ugm-3
05-01-2023,10:00,8.02442,R,ugm-3,25.74874,R,ugm-3,38.05268,R,ugm-3
05-01-2023,11:00,8.86231,R,ugm-3,20.74092,R,ugm-3,34.32961,R,ugm-3
05-01-2023,12:00,11.02149,R,ugm-3,22.74890,R,ugm-3,39.64828,R,ugm-3
05-01-2023,13:00,8.89454,R,ugm-3,15.37284,R,ugm-3,29.01094,R,ugm-3
05-01-2023,14:00,8.99122,R,ugm-3,16.48174,R,ugm-3,30.26808,R,ugm-3
05-01-2023,15:00,7.15430,R,ugm-3,17.31589,R,ugm-3,28.28566,R,ugm-3
05-01-2023,16:00,13.79298,R,ugm-3,29.95866,R,ugm-3,51.10760,R,ugm-3
05-01-2023,17:00,13.98634,R,ugm-3,36.57646,R,ugm-3,58.02187,R,ugm-3
05-01-2023,18:00,4.70508,R,ugm-3,11.54605,R,ugm-3,18.76041,R,ugm-3
05-01-2023,19:00,4.51172,R,ugm-3,9.76341,R,ugm-3,16.68129,R,ugm-3
05-01-2023,20:00,1.57910,R,ugm-3,8.16774,R,ugm-3,10.58899,R,ugm-3
05-01-2023,21:00,1.93360,R,ugm-3,7.43078,R,ugm-3,10.39559,R,ugm-3
05-01-2023,22:00,0.70899,R,ugm-3,5.34366,R,ugm-3,6.43076,R,ugm-3
05-01-2023,23:00,0.74121,R,ugm-3,3.36019,R,ugm-3,4.49670,R,ugm-3
05-01-2023,24:00,0.77344,R,ugm-3,1.57012,R,ugm-3,2.75604,R,ugm-3
06-01-2023,01:00,0.42977,R,ugm-3,1.08292,R,ugm-3,1.74188,R,ugm-3
06-01-2023,02:00,0.51572,R,ugm-3,1.14467,R,ugm-3,1.93543,R,ugm-3
06-01-2023,03:00,0.80581,R,ugm-3,1.08695,R,ugm-3,2.32251,R,ugm-3
06-01-2023,04:00,0.54795,R,ugm-3,0.51462,R,ugm-3,1.35480,R,ugm-3
06-01-2023,05:00,0.35456,R,ugm-3,0.47245,R,ugm-3,1.01610,R,ugm-3
06-01-2023,06:00,0.87028,R,ugm-3,0.98811,R,ugm-3,2.32251,R,ugm-3
06-01-2023,07:00,1.70832,R,ugm-3,2.26757,R,ugm-3,4.88695,R,ugm-3
06-01-2023,08:00,2.77199,R,ugm-3,5.66874,R,ugm-3,9.91906,R,ugm-3
06-01-2023,09:00,3.80342,R,ugm-3,6.45813,R,ugm-3,12.28996,R,ugm-3
06-01-2023,10:00,3.57780,R,ugm-3,6.46538,R,ugm-3,11.95126,R,ugm-3
06-01-2023,11:00,4.22244,R,ugm-3,9.00909,R,ugm-3,15.48341,R,ugm-3
06-01-2023,12:00,7.57461,R,ugm-3,13.15922,R,ugm-3,24.77346,R,ugm-3
06-01-2023,13:00,6.28532,R,ugm-3,10.97494,R,ugm-3,20.61229,R,ugm-3
06-01-2023,14:00,8.60605,R,ugm-3,15.40017,R,ugm-3,28.59593,R,ugm-3
06-01-2023,15:00,,,,,,,,,
06-01-2023,16:00,8.47712,R,ugm-3,22.32347,R,ugm-3,35.32153,R,ugm-3
06-01-2023,17:00,11.41027,R,ugm-3,29.58375,R,ugm-3,47.07925,R,ugm-3
06-01-2023,18:00,7.99363,R,ugm-3,22.67772,R,ugm-3,34.93445,R,ugm-3
06-01-2023,19:00,9.02507,R,ugm-3,32.75715,R,ugm-3,46.59540,R,ugm-3
06-01-2023,20:00,4.73816,R,ugm-3,19.54058,R,ugm-3,26.80566,R,ugm-3
06-01-2023,21:00,2.64306,R,ugm-3,13.12428,R,ugm-3,17.17691,R,ugm-3
06-01-2023,22:00,1.80501,R,ugm-3,14.02218,R,ugm-3,16.78983,R,ugm-3
06-01-2023,23:00,1.16037,R,ugm-3,11.23654,R,ugm-3,13.01574,R,ugm-3
06-01-2023,24:00,1.22483,R,ugm-3,9.58935,R,ugm-3,11.46740,R,ugm-3
07-01-2023,01:00,0.98790,R,ugm-3,7.57870,R,ugm-3,9.09345,R,ugm-3
07-01-2023,02:00,0.68723,R,ugm-3,5.58899,R,ugm-3,6.64274,R,ugm-3
07-01-2023,03:00,0.51543,R,ugm-3,3.07925,R,ugm-3,3.86955,R,ugm-3
07-01-2023,04:00,0.51543,R,ugm-3,2.30534,R,ugm-3,3.09564,R,ugm-3
07-01-2023,05:00,0.54764,R,ugm-3,2.78800,R,ugm-3,3.62771,R,ugm-3
07-01-2023,06:00,0.70871,R,ugm-3,3.89538,R,ugm-3,4.98205,R,ugm-3
07-01-2023,07:00,1.32078,R,ugm-3,3.19874,R,ugm-3,5.22390,R,ugm-3
07-01-2023,08:00,1.83620,R,ugm-3,4.77853,R,ugm-3,7.59400,R,ugm-3
07-01-2023,09:00,1.48185,R,ugm-3,5.17676,R,ugm-3,7.44889,R,ugm-3
07-01-2023,10:00,2.06170,R,ugm-3,6.94798,R,ugm-3,10.10921,R,ugm-3
07-01-2023,11:00,3.41469,R,ugm-3,7.58211,R,ugm-3,12.81790,R,ugm-3
07-01-2023,12:00,4.54219,R,ugm-3,10.40004,R,ugm-3,17.36463,R,ugm-3
07-01-2023,13:00,6.70053,R,ugm-3,13.42702,R,ugm-3,23.70102,R,ugm-3
07-01-2023,14:00,4.67104,R,ugm-3,11.21822,R,ugm-3,18.38038,R,ugm-3
07-01-2023,15:00,5.66968,R,ugm-3,10.17069,R,ugm-3,18.86408,R,ugm-3
07-01-2023,16:00,5.57304,R,ugm-3,13.80147,R,ugm-3,22.34668,R,ugm-3
07-01-2023,17:00,3.64019,R,ugm-3,10.13851,R,ugm-3,15.72007,R,ugm-3
07-01-2023,18:00,2.60934,R,ugm-3,9.49414,R,ugm-3,13.49507,R,ugm-3
07-01-2023,19:00,2.19056,R,ugm-3,8.24985,R,ugm-3,11.60866,R,ugm-3
07-01-2023,20:00,1.57849,R,ugm-3,6.04433,R,ugm-3,8.46465,R,ugm-3
07-01-2023,21:00,2.93148,R,ugm-3,10.64476,R,ugm-3,15.13963,R,ugm-3
07-01-2023,22:00,1.38521,R,ugm-3,7.21135,R,ugm-3,9.33530,R,ugm-3
07-01-2023,23:00,1.19192,R,ugm-3,3.58979,R,ugm-3,5.41738,R,ugm-3
07-01-2023,24:00,1.19192,R,ugm-3,3.15446,R,ugm-3,4.98205,R,ugm-3
08-01-2023,01:00,0.77270,R,ugm-3,2.87688,R,ugm-3,4.06167,R,ugm-3
08-01-2023,02:00,0.72977,R,ugm-3,1.58881,R,ugm-3,2.70778,R,ugm-3
08-01-2023,03:00,0.54733,R,ugm-3,1.09490,R,ugm-3,1.93413,R,ugm-3
08-01-2023,04:00,0.45074,R,ugm-3,1.14630,R,ugm-3,1.83742,R,ugm-3
08-01-2023,05:00,0.64392,R,ugm-3,1.47869,R,ugm-3,2.46601,R,ugm-3
08-01-2023,06:00,0.80489,R,ugm-3,2.58575,R,ugm-3,3.81990,R,ugm-3
08-01-2023,07:00,0.57952,R,ugm-3,1.77084,R,ugm-3,2.65943,R,ugm-3
08-01-2023,08:00,1.06246,R,ugm-3,2.09411,R,ugm-3,3.72320,R,ugm-3
08-01-2023,09:00,1.03027,R,ugm-3,3.01384,R,ugm-3,4.59355,R,ugm-3
08-01-2023,10:00,2.54347,R,ugm-3,8.86532,R,ugm-3,12.76524,R,ugm-3
08-01-2023,11:00,3.05860,R,ugm-3,10.00959,R,ugm-3,14.69937,R,ugm-3
08-01-2023,12:00,4.60400,R,ugm-3,8.70378,R,ugm-3,15.76314,R,ugm-3
08-01-2023,13:00,6.88990,R,ugm-3,15.25625,R,ugm-3,25.82061,R,ugm-3
08-01-2023,14:00,6.60013,R,ugm-3,15.36207,R,ugm-3,25.48214,R,ugm-3
08-01-2023,15:00,5.18352,R,ugm-3,14.29452,R,ugm-3,22.24247,R,ugm-3
08-01-2023,16:00,4.15326,R,ugm-3,12.58622,R,ugm-3,18.95445,R,ugm-3
08-01-2023,17:00,3.79910,R,ugm-3,13.75784,R,ugm-3,19.58304,R,ugm-3
08-01-2023,18:00,3.31617,R,ugm-3,10.82349,R,ugm-3,15.90820,R,ugm-3
08-01-2023,19:00,2.28590,R,ugm-3,8.77671,R,ugm-3,12.28171,R,ugm-3
08-01-2023,20:00,1.83516,R,ugm-3,10.43490,R,ugm-3,13.24878,R,ugm-3
08-01-2023,21:00,1.35222,R,ugm-3,8.27421,R,ugm-3,10.34758,R,ugm-3
08-01-2023,22:00,0.90148,R,ugm-3,7.65979,R,ugm-3,9.04205,R,ugm-3
08-01-2023,23:00,0.90148,R,ugm-3,5.72567,R,ugm-3,7.10792,R,ugm-3
08-01-2023,24:00,0.57952,R,ugm-3,4.62367,R,ugm-3,5.51227,R,ugm-3
09-01-2023,01:00,0.90097,R,ugm-3,2.93664,R,ugm-3,4.31810,R,ugm-3
09-01-2023,02:00,0.64355,R,ugm-3,2.62240,R,ugm-3,3.60916,R,ugm-3
09-01-2023,03:00,0.77226,R,ugm-3,5.43805,R,ugm-3,6.62216,R,ugm-3
09-01-2023,04:00,0.64355,R,ugm-3,3.70192,R,ugm-3,4.68869,R,ugm-3
09-01-2023,05:00,0.54702,R,ugm-3,3.07655,R,ugm-3,3.91530,R,ugm-3
09-01-2023,06:00,1.57670,R,ugm-3,7.24983,R,ugm-3,9.66739,R,ugm-3
09-01-2023,07:00,1.80194,R,ugm-3,10.72308,R,ugm-3,13.48601,R,ugm-3
09-01-2023,08:00,3.92565,R,ugm-3,17.71420,R,ugm-3,23.73345,R,ugm-3
09-01-2023,09:00,4.24743,R,ugm-3,20.50773,R,ugm-3,27.02036,R,ugm-3
09-01-2023,10:00,3.89347,R,ugm-3,18.10190,R,ugm-3,24.07181,R,ugm-3
09-01-2023,11:00,4.98751,R,ugm-3,14.10423,R,ugm-3,21.75163,R,ugm-3
09-01-2023,12:00,4.82662,R,ugm-3,10.38729,R,ugm-3,17.78800,R,ugm-3
09-01-2023,13:00,5.34146,R,ugm-3,9.74289,R,ugm-3,17.93301,R,ugm-3
09-01-2023,14:00,4.21525,R,ugm-3,9.34290,R,ugm-3,15.80619,R,ugm-3
09-01-2023,15:00,5.11622,R,ugm-3,11.39335,R,ugm-3,19.23811,R,ugm-3
09-01-2023,16:00,6.43549,R,ugm-3,13.57581,R,ugm-3,23.44343,R,ugm-3
09-01-2023,17:00,8.39832,R,ugm-3,16.41496,R,ugm-3,29.29220,R,ugm-3
09-01-2023,18:00,4.82662,R,ugm-3,14.93096,R,ugm-3,22.33168,R,ugm-3
09-01-2023,19:00,2.60638,R,ugm-3,11.08475,R,ugm-3,15.08113,R,ugm-3
09-01-2023,20:00,1.83412,R,ugm-3,10.48039,R,ugm-3,13.29267,R,ugm-3
09-01-2023,21:00,1.96283,R,ugm-3,8.92961,R,ugm-3,11.93923,R,ugm-3
09-01-2023,22:00,1.22274,R,ugm-3,4.65064,R,ugm-3,6.52549,R,ugm-3
09-01-2023,23:00,0.90097,R,ugm-3,4.41897,R,ugm-3,5.80044,R,ugm-3
09-01-2023,24:00,0.80444,R,ugm-3,4.08361,R,ugm-3,5.31707,R,ugm-3
10-01-2023,01:00,1.02909,R,ugm-3,3.44743,R,ugm-3,5.02536,R,ugm-3
10-01-2023,02:00,0.55743,R,ugm-3,4.94378,R,ugm-3,5.79849,R,ugm-3
10-01-2023,03:00,2.21898,R,ugm-3,7.56641,R,ugm-3,10.96881,R,ugm-3
10-01-2023,04:00,0.54671,R,ugm-3,2.25426,R,ugm-3,3.09253,R,ugm-3
10-01-2023,05:00,0.57886,R,ugm-3,4.62098,R,ugm-3,5.50856,R,ugm-3
10-01-2023,06:00,2.73353,R,ugm-3,8.95189,R,ugm-3,13.14324,R,ugm-3
10-01-2023,07:00,4.92035,R,ugm-3,16.27769,R,ugm-3,23.82212,R,ugm-3
10-01-2023,08:00,12.12401,R,ugm-3,14.89638,R,ugm-3,33.48627,R,ugm-3
10-01-2023,09:00,7.71820,R,ugm-3,19.33246,R,ugm-3,31.16687,R,ugm-3
10-01-2023,10:00,7.36445,R,ugm-3,17.31387,R,ugm-3,28.60587,R,ugm-3
10-01-2023,11:00,4.66308,R,ugm-3,14.44941,R,ugm-3,21.59937,R,ugm-3
10-01-2023,12:00,5.04899,R,ugm-3,14.19594,R,ugm-3,21.93761,R,ugm-3
10-01-2023,13:00,8.39354,R,ugm-3,19.64993,R,ugm-3,32.51985,R,ugm-3
10-01-2023,14:00,5.08115,R,ugm-3,15.01640,R,ugm-3,22.80738,R,ugm-3
10-01-2023,15:00,6.68911,R,ugm-3,17.38297,R,ugm-3,27.63946,R,ugm-3
10-01-2023,16:00,6.75343,R,ugm-3,17.38099,R,ugm-3,27.73610,R,ugm-3
10-01-2023,17:00,7.91116,R,ugm-3,19.22989,R,ugm-3,31.36015,R,ugm-3
10-01-2023,18:00,5.66001,R,ugm-3,14.56371,R,ugm-3,23.24227,R,ugm-3
10-01-2023,19:00,2.86217,R,ugm-3,6.43525,R,ugm-3,10.82384,R,ugm-3
10-01-2023,20:00,1.38284,R,ugm-3,4.06472,R,ugm-3,6.18505,R,ugm-3
10-01-2023,21:00,1.02909,R,ugm-3,2.96423,R,ugm-3,4.54215,R,ugm-3
10-01-2023,22:00,0.83614,R,ugm-3,2.34199,R,ugm-3,3.62406,R,ugm-3
10-01-2023,23:00,0.86830,R,ugm-3,2.00276,R,ugm-3,3.33413,R,ugm-3
10-01-2023,24:00,0.61102,R,ugm-3,0.94762,R,ugm-3,1.88451,R,ugm-3
11-01-2023,01:00,0.59996,R,ugm-3,1.14106,R,ugm-3,2.06099,R,ugm-3
11-01-2023,02:00,0.42855,R,ugm-3,1.14628,R,ugm-3,1.80337,R,ugm-3
11-01-2023,03:00,0.57854,R,ugm-3,1.04511,R,ugm-3,1.93218,R,ugm-3
11-01-2023,04:00,0.48211,R,ugm-3,0.80652,R,ugm-3,1.54574,R,ugm-3
11-01-2023,05:00,0.32141,R,ugm-3,0.90801,R,ugm-3,1.40083,R,ugm-3
11-01-2023,06:00,1.25349,R,ugm-3,2.66693,R,ugm-3,4.58893,R,ugm-3
11-01-2023,07:00,1.67133,R,ugm-3,4.58640,R,ugm-3,7.14907,R,ugm-3
11-01-2023,08:00,6.71744,R,ugm-3,12.83792,R,ugm-3,23.13785,R,ugm-3
11-01-2023,09:00,5.17468,R,ugm-3,12.25688,R,ugm-3,20.19128,R,ugm-3
11-01-2023,10:00,4.11403,R,ugm-3,8.52139,R,ugm-3,14.82948,R,ugm-3
11-01-2023,11:00,3.47121,R,ugm-3,7.81637,R,ugm-3,13.13882,R,ugm-3
11-01-2023,12:00,3.95333,R,ugm-3,7.36697,R,ugm-3,13.42865,R,ugm-3
11-01-2023,13:00,3.59978,R,ugm-3,7.57094,R,ugm-3,13.09052,R,ugm-3
11-01-2023,14:00,6.94243,R,ugm-3,12.10651,R,ugm-3,22.75142,R,ugm-3
11-01-2023,15:00,5.78535,R,ugm-3,13.54253,R,ugm-3,22.41329,R,ugm-3
11-01-2023,16:00,6.74958,R,ugm-3,17.08774,R,ugm-3,27.43695,R,ugm-3
11-01-2023,17:00,11.34572,R,ugm-3,29.07239,R,ugm-3,46.46892,R,ugm-3
11-01-2023,18:00,6.87814,R,ugm-3,19.93380,R,ugm-3,30.48014,R,ugm-3
11-01-2023,19:00,3.05338,R,ugm-3,11.54852,R,ugm-3,16.23031,R,ugm-3
11-01-2023,20:00,1.99273,R,ugm-3,6.41220,R,ugm-3,9.46768,R,ugm-3
11-01-2023,21:00,1.47848,R,ugm-3,5.75158,R,ugm-3,8.01855,R,ugm-3
11-01-2023,22:00,1.09279,R,ugm-3,3.78282,R,ugm-3,5.45841,R,ugm-3
11-01-2023,23:00,0.77138,R,ugm-3,3.30955,R,ugm-3,4.49232,R,ugm-3
11-01-2023,24:00,0.64282,R,ugm-3,2.54059,R,ugm-3,3.52623,R,ugm-3
12-01-2023,01:00,0.72811,R,ugm-3,2.55349,R,ugm-3,3.66991,R,ugm-3
12-01-2023,02:00,0.59962,R,ugm-3,2.17104,R,ugm-3,3.09045,R,ugm-3
12-01-2023,03:00,0.38547,R,ugm-3,2.16139,R,ugm-3,2.75243,R,ugm-3
12-01-2023,04:00,0.35335,R,ugm-3,2.74181,R,ugm-3,3.28360,R,ugm-3
12-01-2023,05:00,0.57821,R,ugm-3,4.52172,R,ugm-3,5.40829,R,ugm-3
12-01-2023,06:00,1.31702,R,ugm-3,6.47932,R,ugm-3,8.49873,R,ugm-3
12-01-2023,07:00,3.85471,R,ugm-3,16.78502,R,ugm-3,22.69548,R,ugm-3
12-01-2023,08:00,10.85742,R,ugm-3,37.77306,R,ugm-3,54.42087,R,ugm-3
12-01-2023,09:00,14.90486,R,ugm-3,39.05175,R,ugm-3,61.90555,R,ugm-3
12-01-2023,10:00,8.86582,R,ugm-3,27.16122,R,ugm-3,40.75529,R,ugm-3
12-01-2023,11:00,8.41611,R,ugm-3,23.02195,R,ugm-3,35.92647,R,ugm-3
12-01-2023,12:00,6.90635,R,ugm-3,18.91454,R,ugm-3,29.50413,R,ugm-3
12-01-2023,13:00,4.24018,R,ugm-3,10.20623,R,ugm-3,16.70774,R,ugm-3
12-01-2023,14:00,3.98320,R,ugm-3,7.94440,R,ugm-3,14.05188,R,ugm-3
12-01-2023,15:00,4.56140,R,ugm-3,7.83044,R,ugm-3,14.82450,R,ugm-3
12-01-2023,16:00,4.52928,R,ugm-3,10.05267,R,ugm-3,16.99747,R,ugm-3
12-01-2023,17:00,7.29182,R,ugm-3,10.83882,R,ugm-3,22.01945,R,ugm-3
12-01-2023,18:00,6.36027,R,ugm-3,8.83871,R,ugm-3,18.59098,R,ugm-3
12-01-2023,19:00,1.99160,R,ugm-3,4.67238,R,ugm-3,7.72612,R,ugm-3
12-01-2023,20:00,1.25278,R,ugm-3,3.63225,R,ugm-3,5.55315,R,ugm-3
12-01-2023,21:00,0.99580,R,ugm-3,2.62592,R,ugm-3,4.15279,R,ugm-3
12-01-2023,22:00,1.12429,R,ugm-3,1.75287,R,ugm-3,3.47676,R,ugm-3
12-01-2023,23:00,0.70670,R,ugm-3,1.18596,R,ugm-3,2.26955,R,ugm-3
12-01-2023,24:00,0.61033,R,ugm-3,1.09228,R,ugm-3,2.02811,R,ugm-3
13-01-2023,01:00,0.47086,R,ugm-3,1.01582,R,ugm-3,1.73779,R,ugm-3
13-01-2023,02:00,0.47086,R,ugm-3,1.14454,R,ugm-3,1.86652,R,ugm-3
13-01-2023,03:00,0.44946,R,ugm-3,0.75900,R,ugm-3,1.44816,R,ugm-3
13-01-2023,04:00,0.28894,R,ugm-3,1.19822,R,ugm-3,1.64125,R,ugm-3
13-01-2023,05:00,0.35315,R,ugm-3,1.34113,R,ugm-3,1.88261,R,ugm-3
13-01-2023,06:00,0.77050,R,ugm-3,2.14935,R,ugm-3,3.33077,R,ugm-3
13-01-2023,07:00,1.38048,R,ugm-3,4.30347,R,ugm-3,6.42018,R,ugm-3
13-01-2023,08:00,2.82517,R,ugm-3,8.46022,R,ugm-3,12.79209,R,ugm-3
13-01-2023,09:00,3.62778,R,ugm-3,9.06391,R,ugm-3,14.62643,R,ugm-3
13-01-2023,10:00,3.53147,R,ugm-3,11.04592,R,ugm-3,16.46076,R,ugm-3
13-01-2023,11:00,4.01303,R,ugm-3,8.95592,R,ugm-3,15.10914,R,ugm-3
13-01-2023,12:00,4.17355,R,ugm-3,11.07512,R,ugm-3,17.47447,R,ugm-3
13-01-2023,13:00,4.81564,R,ugm-3,13.32483,R,ugm-3,20.70870,R,ugm-3
13-01-2023,14:00,4.26987,R,ugm-3,10.63781,R,ugm-3,17.18484,R,ugm-3
13-01-2023,15:00,5.90718,R,ugm-3,13.24413,R,ugm-3,22.30168,R,ugm-3
13-01-2023,16:00,6.03560,R,ugm-3,18.45369,R,ugm-3,27.70814,R,ugm-3
13-01-2023,17:00,6.64558,R,ugm-3,18.67693,R,ugm-3,28.86667,R,ugm-3
13-01-2023,18:00,4.23776,R,ugm-3,13.39027,R,ugm-3,19.88808,R,ugm-3
13-01-2023,19:00,4.01303,R,ugm-3,14.36238,R,ugm-3,20.51561,R,ugm-3
13-01-2023,20:00,2.53624,R,ugm-3,7.64818,R,ugm-3,11.53702,R,ugm-3
13-01-2023,21:00,2.82517,R,ugm-3,10.10146,R,ugm-3,14.43334,R,ugm-3
13-01-2023,22:00,3.11411,R,ugm-3,12.50648,R,ugm-3,17.28139,R,ugm-3
13-01-2023,23:00,4.36618,R,ugm-3,20.57898,R,ugm-3,27.27370,R,ugm-3
13-01-2023,24:00,3.14622,R,ugm-3,16.75347,R,ugm-3,21.57760,R,ugm-3
14-01-2023,01:00,2.48131,R,ugm-3,10.86514,R,ugm-3,14.66976,R,ugm-3
14-01-2023,02:00,0.68450,R,ugm-3,7.50781,R,ugm-3,8.55736,R,ugm-3
14-01-2023,03:00,0.60963,R,ugm-3,7.12396,R,ugm-3,8.05872,R,ugm-3
14-01-2023,04:00,0.54546,R,ugm-3,6.25724,R,ugm-3,7.09360,R,ugm-3
14-01-2023,05:00,0.57755,R,ugm-3,5.91851,R,ugm-3,6.80407,R,ugm-3
14-01-2023,06:00,0.60963,R,ugm-3,5.09722,R,ugm-3,6.03197,R,ugm-3
14-01-2023,07:00,1.21927,R,ugm-3,5.12758,R,ugm-3,6.99709,R,ugm-3
14-01-2023,08:00,1.28344,R,ugm-3,5.27046,R,ugm-3,7.23837,R,ugm-3
14-01-2023,09:00,2.85565,R,ugm-3,9.85686,R,ugm-3,14.23546,R,ugm-3
14-01-2023,10:00,3.27277,R,ugm-3,12.88473,R,ugm-3,17.90290,R,ugm-3
14-01-2023,11:00,4.10700,R,ugm-3,8.95152,R,ugm-3,15.24883,R,ugm-3
14-01-2023,12:00,4.78081,R,ugm-3,10.37941,R,ugm-3,17.70988,R,ugm-3
14-01-2023,13:00,7.02682,R,ugm-3,9.58964,R,ugm-3,20.36394,R,ugm-3
14-01-2023,14:00,8.50277,R,ugm-3,11.76608,R,ugm-3,24.80348,R,ugm-3
14-01-2023,15:00,7.70062,R,ugm-3,11.45183,R,ugm-3,23.25929,R,ugm-3
14-01-2023,16:00,3.08025,R,ugm-3,6.32759,R,ugm-3,11.05058,R,ugm-3
14-01-2023,17:00,3.43319,R,ugm-3,6.89630,R,ugm-3,12.16046,R,ugm-3
14-01-2023,18:00,5.61504,R,ugm-3,8.61771,R,ugm-3,17.22732,R,ugm-3
14-01-2023,19:00,3.08025,R,ugm-3,4.59038,R,ugm-3,9.31337,R,ugm-3
14-01-2023,20:00,1.73264,R,ugm-3,2.16890,R,ugm-3,4.82558,R,ugm-3
14-01-2023,21:00,0.89841,R,ugm-3,1.80735,R,ugm-3,3.18488,R,ugm-3
14-01-2023,22:00,0.99466,R,ugm-3,1.27371,R,ugm-3,2.79884,R,ugm-3
14-01-2023,23:00,0.51338,R,ugm-3,0.99830,R,ugm-3,1.78546,R,ugm-3
14-01-2023,24:00,0.73798,R,ugm-3,0.99171,R,ugm-3,2.12326,R,ugm-3
15-01-2023,01:00,0.42757,R,ugm-3,0.69511,R,ugm-3,1.35071,R,ugm-3
15-01-2023,02:00,0.47033,R,ugm-3,0.37228,R,ugm-3,1.09343,R,ugm-3
15-01-2023,03:00,0.38481,R,ugm-3,0.27828,R,ugm-3,0.86831,R,ugm-3
15-01-2023,04:00,0.22447,R,ugm-3,0.62060,R,ugm-3,0.96479,R,ugm-3
15-01-2023,05:00,0.41688,R,ugm-3,0.90446,R,ugm-3,1.54367,R,ugm-3
15-01-2023,06:00,0.57722,R,ugm-3,1.91284,R,ugm-3,2.79789,R,ugm-3
15-01-2023,07:00,0.67342,R,ugm-3,2.77836,R,ugm-3,3.81093,R,ugm-3
15-01-2023,08:00,0.83376,R,ugm-3,4.02794,R,ugm-3,5.30635,R,ugm-3
15-01-2023,09:00,1.12237,R,ugm-3,5.85267,R,ugm-3,7.57361,R,ugm-3
15-01-2023,10:00,2.40507,R,ugm-3,7.93801,R,ugm-3,11.62573,R,ugm-3
15-01-2023,11:00,2.62955,R,ugm-3,7.35262,R,ugm-3,11.38454,R,ugm-3
15-01-2023,12:00,4.20086,R,ugm-3,9.96022,R,ugm-3,16.40145,R,ugm-3
15-01-2023,13:00,5.25909,R,ugm-3,9.78481,R,ugm-3,17.84864,R,ugm-3
15-01-2023,14:00,4.48947,R,ugm-3,10.53073,R,ugm-3,17.41448,R,ugm-3
15-01-2023,15:00,3.49537,R,ugm-3,11.57259,R,ugm-3,16.93209,R,ugm-3
15-01-2023,16:00,4.00845,R,ugm-3,17.00878,R,ugm-3,23.15499,R,ugm-3
15-01-2023,17:00,2.88609,R,ugm-3,16.55894,R,ugm-3,20.98421,R,ugm-3
15-01-2023,18:00,5.54770,R,ugm-3,28.15571,R,ugm-3,36.66207,R,ugm-3
15-01-2023,19:00,4.97048,R,ugm-3,31.21155,R,ugm-3,38.83285,R,ugm-3
15-01-2023,20:00,3.55951,R,ugm-3,32.36198,R,ugm-3,37.81981,R,ugm-3
15-01-2023,21:00,5.64390,R,ugm-3,40.45401,R,ugm-3,49.10787,R,ugm-3
15-01-2023,22:00,1.85992,R,ugm-3,33.32783,R,ugm-3,36.17967,R,ugm-3
15-01-2023,23:00,2.56541,R,ugm-3,31.52250,R,ugm-3,35.45608,R,ugm-3